Wind_Speed
20 20 20 20 20 20 20 20 20 21 20 19 17 14 13 12 11 11 11 11 11 11 11 11 12 13 13 14 15 15 15 14 13 16 15 11 12 10 11 13 11 14 14 12 13 16 17 14 11 10 10 8 8 8 7 8 6 2 0 2 3 2 3 3 3 3 4 8 7 5 5 3 5 9 11 9 7 8 13 12 11 10 14 20 24 27 28 28
20 20 20 20 20 20 20 19 20 20 20 20 18 15 13 12 11 11 11 11 11 10 10 11 11 12 13 14 15 16 17 16 15 19 14 10 12 15 15 12 12 15 15 14 16 16 15 15 12 10 8 5 5 6 6 4 5 3 0 1 1 2 2 3 4 3 4 7 11 7 5 5 3 4 5 5 9 8 10 12 13 15 19 24 25 27 27 28
20 20 20 20 20 20 20 19 19 19 19 20 19 16 13 12 11 10 10 10 10 10 10 10 10 12 13 13 16 16 18 17 17 16 11 15 16 17 16 13 13 14 14 15 15 13 11 12 11 8 6 5 6 7 6 4 4 5 2 1 1 4 2 1 2 1 4 5 10 11 9 6 7 1 6 2 10 9 9 11 13 15 20 23 23 26 27 27
20 20 20 20 20 20 20 20 19 19 19 19 19 17 14 12 11 10 10 10 10 10 9 9 10 11 12 14 15 15 18 16 10 7 8 14 17 17 16 14 14 13 14 15 12 11 9 8 11 10 7 7 10 9 6 7 4 4 3 1 2 5 2 1 1 1 4 3 5 9 7 7 13 6 4 5 9 8 7 10 13 16 19 22 23 25 26 26
20 20 20 20 20 20 20 20 19 18 18 18 18 17 15 13 11 10 9 9 9 9 9 9 10 11 12 13 14 16 15 8 2 6 7 11 15 16 16 14 14 14 16 15 11 10 9 8 13 13 10 8 8 6 4 10 7 4 6 8 2 4 1 2 2 2 3 3 3 5 2 5 13 6 1 5 7 6 8 11 13 16 17 20 23 24 25 26
20 20 20 20 20 20 20 20 20 19 18 18 17 17 16 14 11 9 9 9 9 9 9 9 9 10 12 11 14 15 9 3 4 6 7 10 14 16 16 15 15 16 17 15 11 10 9 7 11 10 9 8 5 6 9 8 8 2 7 7 0 1 1 3 4 4 2 2 4 4 2 3 9 6 3 6 6 5 9 12 12 14 16 18 22 23 24 25
20 20 20 20 20 20 20 20 20 19 18 17 17 17 16 14 12 9 8 8 8 8 8 8 9 10 11 11 13 12 10 8 2 6 8 10 13 16 17 17 18 17 17 16 12 11 9 6 8 8 7 9 3 7 14 8 13 9 4 2 2 2 2 4 5 7 5 5 4 1 1 3 6 4 2 7 5 4 8 12 12 14 16 17 20 22 23 24
20 20 20 20 19 20 20 20 20 19 19 18 17 16 16 15 12 10 8 7 7 8 8 8 8 9 10 10 11 11 12 10 5 5 9 13 15 18 19 20 20 18 17 17 15 11 6 5 10 9 6 10 5 7 10 9 12 6 2 3 2 3 4 4 6 9 8 6 5 3 4 5 5 3 5 8 5 4 9 12 12 15 16 17 19 20 22 22
20 20 20 20 19 19 19 20 20 20 19 18 17 16 16 15 12 10 8 7 6 7 8 7 7 8 10 10 9 10 6 7 8 5 10 16 18 20 21 22 22 19 17 18 16 8 6 8 9 10 8 11 9 3 7 9 4 1 2 4 3 3 4 5 7 11 9 6 4 3 4 4 3 3 4 5 5 7 12 12 13 16 16 16 18 19 20 20
20 20 20 20 20 19 19 19 19 19 19 18 17 16 15 14 13 10 8 7 6 7 7 7 7 7 8 9 8 6 1 5 6 5 12 16 20 21 20 22 22 20 19 16 15 9 9 11 9 10 8 10 13 3 9 8 5 6 4 5 5 4 4 7 10 12 8 4 2 1 2 4 3 1 3 2 4 9 13 11 13 16 16 17 18 18 19 19
20 20 20 20 20 19 19 18 19 19 19 18 17 16 15 14 12 9 8 7 6 6 6 6 6 7 7 8 9 6 2 2 6 7 13 15 19 20 19 22 20 19 19 15 13 10 10 11 11 9 6 9 10 7 5 11 14 13 8 6 3 6 4 6 10 8 4 1 2 3 2 3 2 1 4 6 5 9 12 11 11 16 17 17 19 19 18 19
20 20 20 20 20 20 19 18 18 18 19 18 17 16 14 13 12 9 7 6 7 6 6 6 6 7 7 9 15 13 2 2 7 8 13 13 15 14 14 19 19 18 18 14 11 9 10 11 13 11 9 13 6 12 5 17 18 15 12 6 2 5 3 4 6 7 4 0 5 6 3 4 4 3 8 10 9 10 13 10 9 16 18 17 19 19 17 18
20 20 20 20 20 20 19 18 17 17 18 18 17 15 14 13 11 8 7 6 7 6 6 5 5 6 6 10 14 12 7 5 7 9 13 13 11 12 14 17 18 18 17 16 13 9 10 10 13 14 13 15 6 3 11 22 16 12 10 4 4 2 0 6 6 8 4 4 14 14 4 3 7 8 12 14 13 12 11 10 11 16 18 18 18 17 17 18
20 20 20 20 20 20 20 19 18 17 17 18 17 15 13 12 10 8 7 7 6 6 6 5 6 5 5 12 11 7 9 7 8 12 15 16 15 15 16 18 18 17 16 16 13 11 13 13 16 17 14 15 12 9 6 13 9 8 7 3 5 1 4 12 12 11 6 12 24 17 3 5 8 9 13 15 17 16 12 12 13 15 18 18 18 17 16 18
20 20 20 20 20 20 20 20 18 16 16 18 17 15 13 12 10 8 7 7 7 6 6 5 5 4 8 15 13 10 13 10 11 14 16 19 18 18 19 18 19 18 17 17 14 15 16 13 15 16 14 16 14 11 4 2 2 5 5 4 6 3 6 12 15 16 10 14 22 12 2 5 7 11 17 17 17 17 15 14 14 14 17 18 18 17 16 18
21 20 20 20 20 20 20 20 19 17 16 17 16 15 13 11 9 8 7 7 7 6 5 2 4 6 8 9 8 12 15 14 15 15 17 20 19 18 19 18 18 19 18 18 16 16 14 11 14 14 13 13 10 6 4 2 4 6 5 4 4 5 7 8 13 17 12 12 15 10 3 6 7 12 17 18 19 18 16 16 15 14 16 17 17 18 17 18
22 21 20 20 20 20 20 20 20 17 15 15 16 15 13 11 10 9 7 7 7 6 6 4 2 7 11 8 6 11 15 14 15 17 18 19 19 18 18 18 18 19 19 18 17 16 14 13 13 11 11 9 6 6 6 3 3 5 7 5 2 5 7 8 10 14 13 11 12 10 5 6 12 16 15 18 20 19 18 18 17 14 15 16 16 18 18 18
21 21 20 20 20 20 19 20 20 18 15 14 15 15 13 13 12 10 9 8 7 6 7 8 5 5 11 15 16 15 15 15 15 17 19 19 20 19 18 18 16 16 18 16 16 17 14 13 10 8 7 7 5 6 6 3 4 3 3 5 4 4 7 10 10 13 14 11 9 7 6 9 14 18 20 21 20 18 18 19 18 16 15 15 16 18 18 18
21 21 20 20 19 19 19 19 20 19 16 13 13 15 15 13 12 11 9 8 8 6 5 10 15 8 6 9 18 19 15 17 17 17 20 19 19 20 19 17 16 16 16 12 12 15 13 10 8 6 6 7 6 6 7 6 7 7 4 2 5 5 4 10 12 13 15 11 6 2 4 12 14 15 21 23 23 20 18 17 17 17 16 15 15 16 17 18
21 21 21 20 19 19 18 19 18 19 17 13 12 14 12 10 8 5 6 11 15 16 14 11 19 18 14 11 14 17 10 11 17 17 19 19 18 20 20 19 17 16 14 11 10 11 13 9 7 8 8 7 8 9 10 8 7 6 6 5 5 7 4 11 13 13 12 8 9 7 8 11 13 12 18 23 21 17 18 18 18 18 17 17 16 15 16 18
21 21 20 20 19 18 17 18 17 17 17 13 12 12 10 8 7 4 3 12 19 22 25 20 17 20 19 16 12 14 10 9 15 16 16 19 19 17 19 19 16 12 13 14 11 9 11 9 8 12 10 7 9 12 12 9 8 8 6 5 3 6 5 12 13 13 10 4 8 10 7 9 11 11 15 19 17 13 17 18 18 20 18 19 19 18 18 17
21 21 21 20 18 17 17 17 16 16 15 12 11 11 10 9 10 10 10 12 18 22 26 23 21 20 19 19 11 9 12 13 16 18 16 19 20 17 16 17 14 11 12 14 11 8 8 9 12 14 10 9 11 11 13 11 9 7 5 4 1 4 6 11 12 13 10 3 4 5 4 8 9 11 12 13 13 14 17 16 17 21 19 18 20 20 20 18
21 21 21 20 18 17 15 15 15 15 13 10 10 10 11 12 11 12 12 12 17 20 23 23 24 23 20 21 14 8 11 13 15 19 20 20 21 20 17 15 14 13 13 13 11 9 7 9 14 14 11 13 12 10 12 11 7 6 5 3 2 6 6 7 9 13 9 5 6 5 3 7 9 9 9 10 12 14 17 16 16 18 17 17 18 19 19 18
22 21 21 20 18 16 14 14 12 10 10 7 8 9 10 14 12 12 14 13 14 17 22 23 23 24 22 21 17 14 14 14 15 18 22 22 21 21 17 15 14 13 14 15 15 14 10 10 14 13 12 13 11 10 10 8 6 6 7 5 2 5 7 7 7 13 11 7 8 8 2 5 8 8 8 8 9 12 15 17 17 16 15 16 16 16 17 17
22 22 21 20 18 14 12 11 6 4 7 9 10 10 9 11 9 9 11 10 10 14 20 21 22 22 23 21 19 18 16 17 19 17 20 25 22 18 15 16 14 11 15 18 17 13 9 11 16 14 12 12 12 10 9 7 6 6 10 7 1 1 6 11 9 9 7 4 6 8 3 3 5 7 9 9 8 8 10 14 17 18 16 16 17 17 17 18
22 22 21 20 18 14 10 5 3 6 8 8 7 7 6 6 6 8 8 6 7 7 12 16 17 16 20 22 21 19 14 16 21 19 18 24 24 19 14 13 12 12 15 14 12 7 4 7 16 16 13 13 13 11 9 9 7 4 5 5 1 1 3 5 10 8 4 3 5 5 4 4 4 5 9 10 9 9 8 9 14 18 19 17 18 20 18 18
22 21 20 20 17 14 11 6 6 10 10 6 5 6 6 5 6 7 5 6 6 7 11 11 11 12 16 21 22 18 10 11 18 22 20 21 24 22 15 12 11 12 12 8 8 4 6 2 14 19 16 12 12 9 8 10 8 3 3 7 1 5 9 7 9 6 5 6 7 6 5 6 4 4 9 11 10 11 10 8 10 14 17 17 18 21 19 19
21 20 20 19 15 13 14 12 9 13 12 7 8 7 7 8 8 6 5 6 3 8 9 8 7 7 11 17 23 19 12 11 14 19 24 20 22 22 16 15 14 13 12 9 8 6 6 8 14 19 14 9 9 9 11 11 10 6 5 8 6 7 11 7 6 4 4 5 6 6 8 6 4 4 8 11 10 11 13 12 11 12 14 15 17 18 17 17
20 19 19 19 14 11 15 15 12 12 11 10 11 8 7 8 8 5 6 5 3 6 7 9 9 8 10 13 21 21 18 16 11 17 25 22 21 20 15 16 18 15 15 13 10 9 9 12 16 16 11 8 10 12 14 13 11 7 4 6 9 9 8 4 4 5 4 1 4 6 8 5 4 6 8 9 10 11 12 13 12 14 17 17 17 19 17 16
20 18 18 20 13 8 13 13 9 8 8 11 12 9 7 7 6 6 6 3 4 7 8 9 10 11 14 13 15 19 19 18 12 16 25 21 21 21 17 18 17 14 13 13 14 11 9 11 14 13 9 8 12 15 15 15 15 9 5 7 8 7 6 5 3 4 3 2 6 10 9 7 4 6 8 8 10 11 12 12 13 16 20 19 17 19 20 18
20 18 17 20 15 10 12 8 2 3 4 7 8 7 7 6 5 7 5 1 3 8 10 8 10 12 15 14 12 15 16 16 14 14 18 16 16 17 15 14 12 10 10 10 12 12 12 12 10 10 12 13 14 15 15 16 15 8 6 8 6 6 6 4 3 4 3 3 6 9 9 10 5 5 8 11 13 15 13 14 16 17 20 21 18 17 19 20
19 17 17 19 17 15 13 6 6 3 3 3 5 7 7 6 6 8 5 1 1 7 8 8 11 11 15 16 12 14 15 14 14 13 13 12 11 12 13 11 8 8 9 9 9 11 12 13 10 11 15 17 14 10 11 14 11 5 6 8 6 4 4 4 4 4 4 5 4 4 5 7 4 3 6 8 10 13 14 14 17 21 23 24 20 17 18 19
17 16 16 16 17 17 13 10 10 8 4 3 5 7 7 6 7 9 9 6 2 5 5 7 11 11 13 14 12 14 15 14 15 13 12 13 11 12 15 15 13 9 8 9 9 9 10 12 15 14 12 15 15 10 8 10 9 9 9 7 5 4 4 4 4 4 5 6 6 6 5 5 4 3 5 6 8 12 14 14 14 17 24 29 26 21 19 19
15 14 13 13 15 14 12 13 14 10 5 5 6 7 9 8 8 9 10 10 5 4 1 3 10 12 12 12 11 13 13 14 16 13 12 13 11 10 14 17 18 13 8 9 9 8 9 9 13 14 10 13 16 13 10 10 9 10 10 9 8 5 4 4 3 5 5 4 6 10 8 3 3 6 6 7 11 15 15 16 17 14 20 28 27 23 19 20
12 10 10 10 12 11 12 14 14 10 7 7 7 7 8 8 9 9 8 9 6 4 5 5 6 9 11 11 12 15 13 12 16 14 11 12 11 10 11 14 18 16 10 8 7 7 10 8 11 16 13 13 16 15 14 13 9 8 10 10 8 5 5 5 4 7 6 3 5 5 4 1 3 10 11 7 8 12 10 15 22 18 19 23 21 19 17 19
8 7 7 7 8 8 11 13 12 11 9 8 8 8 9 9 8 7 4 4 8 5 5 8 7 7 8 9 10 15 15 12 15 13 11 13 13 13 12 11 16 18 13 9 6 6 8 7 9 16 16 16 17 16 15 13 7 4 8 9 8 8 7 6 6 7 7 5 4 3 4 3 4 8 13 11 8 7 6 9 15 17 22 24 20 17 17 17
7 6 6 7 7 8 11 12 11 12 11 9 8 8 8 10 12 12 7 2 8 9 5 4 7 7 8 8 8 13 16 13 14 11 10 12 12 14 15 13 15 20 18 14 8 7 7 6 6 12 15 17 18 17 17 16 10 5 6 9 10 11 7 6 5 5 5 5 4 5 5 5 4 4 7 12 9 8 9 7 8 13 20 24 22 20 20 18
9 6 7 8 10 10 10 11 12 13 12 9 10 11 10 11 14 15 8 2 5 7 7 6 5 6 8 7 8 13 15 11 12 12 10 10 10 13 16 13 13 18 20 19 11 8 8 6 5 11 13 14 16 15 14 15 16 12 8 8 7 6 5 6 6 3 5 5 4 6 6 3 4 3 3 7 8 7 8 6 4 7 11 14 15 19 21 18
9 7 5 8 14 12 8 10 13 13 11 9 8 9 10 13 17 18 11 5 6 8 7 9 7 5 9 10 8 12 15 12 11 11 9 8 8 13 16 13 13 16 19 19 12 8 9 7 4 10 13 12 11 11 10 11 15 14 12 8 5 4 4 6 5 3 5 5 3 5 4 2 3 4 4 5 6 6 8 7 3 1 1 3 5 9 18 15
7 6 4 14 15 11 8 11 13 11 9 9 9 9 10 12 15 18 12 3 5 8 6 9 9 6 8 10 8 7 12 14 12 10 9 9 8 12 16 14 13 14 17 17 14 9 8 6 5 7 11 11 9 9 11 10 11 12 11 9 6 6 5 5 4 5 6 6 3 3 4 2 1 2 0 2 5 8 10 8 2 3 0 5 12 14 18 13
7 7 6 16 14 11 12 12 10 9 8 8 9 11 12 11 13 15 9 4 7 10 10 11 10 8 8 7 6 7 7 10 12 10 8 10 10 8 12 14 13 13 14 14 12 10 7 6 7 7 8 10 9 11 15 15 12 11 10 9 8 8 6 5 5 4 4 6 4 3 4 3 2 4 2 2 4 7 8 9 7 4 2 5 10 17 23 20
7 5 6 13 14 15 15 9 8 9 8 8 11 13 11 9 11 11 5 4 8 9 11 12 10 10 9 7 6 7 7 7 11 12 8 11 13 8 9 13 15 14 10 9 10 11 8 6 6 8 7 8 11 14 17 17 16 12 11 11 10 9 7 5 5 4 5 6 5 4 5 2 5 5 2 3 5 4 2 5 9 7 6 10 11 15 21 22
8 3 6 7 12 18 15 7 7 8 8 11 15 18 16 9 8 10 7 8 8 7 9 10 9 10 8 7 8 7 7 7 11 14 13 12 13 12 13 14 15 13 9 7 8 11 9 7 6 7 7 6 11 14 16 16 15 12 11 12 12 11 10 8 7 7 7 6 5 5 5 2 5 4 2 6 6 2 3 7 10 8 10 13 12 13 14 16
14 9 5 8 12 18 12 7 7 8 9 13 15 17 18 11 7 10 10 10 10 8 9 9 9 10 9 9 10 8 7 6 8 13 12 10 12 15 18 18 14 11 8 7 7 8 8 7 6 6 7 6 9 10 12 14 12 9 10 12 12 13 14 12 10 9 7 7 7 6 6 3 5 3 2 2 6 4 5 9 6 5 7 8 8 8 8 13
15 9 9 11 14 17 13 10 7 6 7 12 14 14 15 10 8 13 14 13 13 11 9 9 10 11 11 10 11 10 9 7 6 9 9 9 10 12 17 18 15 12 12 10 8 8 8 6 7 7 8 7 7 7 8 10 10 9 11 14 14 16 19 14 8 7 5 5 7 6 5 3 7 4 4 4 8 8 6 7 9 9 9 7 7 6 6 12
10 5 7 11 14 16 16 17 13 9 7 8 9 12 13 10 10 15 15 14 14 13 11 10 10 11 12 13 11 10 11 10 8 8 8 10 11 8 11 14 15 13 13 8 6 8 6 6 9 10 10 10 8 7 8 9 10 11 13 16 17 19 19 12 7 7 4 4 6 5 5 5 6 7 6 4 6 6 3 4 7 13 17 10 9 10 7 12
7 5 0 2 8 12 13 15 14 10 9 8 7 9 12 11 11 12 15 12 14 13 11 9 10 11 11 12 11 9 11 12 10 10 10 10 11 9 10 15 17 13 7 6 8 8 6 6 11 13 14 15 15 13 12 12 12 13 15 17 18 18 16 12 9 9 6 5 7 4 4 7 6 7 7 6 6 2 7 10 6 11 18 11 10 12 8 12
7 8 8 9 3 8 7 10 13 12 13 12 7 8 9 11 12 9 11 10 12 13 10 8 12 14 12 11 9 8 11 12 12 14 11 9 12 12 11 15 15 12 7 8 11 7 6 8 10 12 14 15 16 18 18 15 13 14 15 16 17 16 16 15 15 15 11 9 9 6 6 6 6 7 5 2 4 9 14 15 15 12 8 4 6 8 5 5
11 11 11 14 10 10 10 10 11 11 13 12 7 7 9 10 11 8 6 7 10 11 10 9 12 14 15 15 11 8 10 9 7 8 8 8 12 11 7 8 8 7 9 10 8 7 7 8 9 11 12 13 15 17 19 19 17 15 16 17 16 16 18 19 17 17 16 15 15 11 9 9 9 6 2 4 10 12 13 14 13 6 2 5 12 16 15 11
11 10 13 17 15 13 14 12 9 8 10 9 7 7 9 11 11 8 6 7 8 8 9 12 13 11 11 16 13 7 7 7 5 5 7 8 9 8 7 4 4 10 14 11 8 9 8 7 9 10 10 12 15 17 18 20 19 17 16 16 16 17 19 18 16 16 17 16 17 16 11 9 4 5 8 6 8 10 10 10 9 6 9 17 21 17 10 4
12 10 11 13 11 11 12 10 8 7 6 6 7 8 9 11 10 7 6 7 8 8 6 9 10 5 7 13 10 2 6 7 5 4 6 8 7 6 7 3 1 8 12 10 8 9 9 8 9 9 8 10 13 15 17 18 19 19 18 18 17 16 15 12 11 12 13 12 14 15 11 5 7 10 12 10 7 7 7 5 6 12 19 20 11 4 7 6
16 12 10 9 8 9 11 9 7 8 6 6 9 9 10 11 8 6 6 6 9 11 6 6 7 5 5 9 5 2 4 6 8 8 8 10 10 10 10 7 6 9 8 8 8 8 8 7 7 8 8 9 12 15 15 15 15 15 15 17 19 17 13 11 12 12 13 14 11 7 2 6 8 8 7 4 1 4 9 9 11 15 15 12 9 8 7 6
Wind_Direction
344 343 343 344 346 346 347 349 350 353 355 352 344 337 330 321 316 309 306 305 306 310 311 315 314 311 311 313 310 307 305 297 291 280 268 228 206 201 200 218 205 184 178 164 160 160 167 182 191 205 218 223 234 251 252 244 237 237 353 262 287 280 277 324 50 88 113 115 127 129 134 174 168 190 213 188 155 124 118 114 116 123 132 138 142 143 143 145
341 341 340 341 342 343 344 346 347 349 352 352 347 339 332 324 317 310 308 306 307 310 310 315 314 312 313 313 312 312 307 303 297 277 247 184 191 197 191 207 205 188 173 164 168 171 176 178 188 210 214 228 258 260 254 235 210 193 158 307 290 283 297 342 16 57 74 108 136 141 166 185 143 187 243 170 141 129 113 107 112 112 117 130 138 143 146 148
339 338 338 338 338 340 341 343 343 345 348 350 348 341 334 325 318 312 309 306 307 308 309 315 314 313 313 314 315 313 314 314 300 274 215 175 188 190 182 187 196 191 168 166 174 176 180 176 193 218 216 238 269 260 243 229 211 183 176 3 243 245 260 49 11 46 58 90 138 143 179 175 113 73 313 174 136 122 121 118 125 126 126 133 141 146 149 152
335 335 335 335 335 336 338 340 340 341 344 347 348 343 335 327 318 312 309 308 306 305 309 314 314 314 314 316 317 317 320 316 288 245 180 176 182 179 178 176 182 183 160 165 180 180 186 182 190 207 217 229 238 241 229 218 203 124 169 241 242 235 236 64 41 101 96 108 147 133 159 144 118 124 286 191 138 110 123 125 135 139 136 141 145 150 153 155
332 332 332 333 333 333 335 337 337 338 339 341 345 344 337 327 318 312 308 308 305 305 309 311 314 312 312 318 317 318 320 325 97 124 142 171 173 168 170 167 174 173 151 162 179 178 202 188 168 189 219 232 225 233 242 211 184 93 232 237 259 243 212 64 51 50 94 141 139 111 144 143 124 121 279 153 122 103 114 114 127 135 140 147 149 153 156 157
330 330 330 330 330 331 332 334 335 335 336 337 341 343 339 328 318 311 306 306 305 305 307 308 315 309 312 320 314 314 311 322 69 112 128 153 166 163 160 156 162 161 154 173 180 179 215 191 167 195 227 252 234 225 256 218 177 158 233 226 75 278 111 66 52 51 56 100 103 114 223 170 114 91 45 101 98 96 110 112 124 133 141 147 150 156 158 158
329 328 328 328 328 329 330 331 332 332 333 334 336 339 338 330 318 310 304 304 303 302 304 307 312 309 312 317 314 306 278 275 293 138 137 148 158 155 152 150 155 159 170 191 192 193 217 193 212 239 245 265 223 225 263 215 185 211 210 166 93 75 79 62 52 53 45 45 45 56 150 106 106 106 130 120 95 61 106 121 131 135 141 147 152 157 158 159
329 328 327 327 326 327 327 329 330 330 331 331 333 335 335 331 318 308 303 300 304 301 301 306 310 311 310 316 317 298 270 247 212 153 146 152 152 151 150 153 159 164 175 193 200 206 222 220 243 253 270 279 232 214 248 180 179 225 73 98 89 72 78 72 66 59 46 43 19 348 100 114 129 141 148 126 84 57 112 126 139 139 141 150 155 158 160 161
330 329 327 325 325 325 325 327 328 328 329 328 331 331 331 331 320 308 301 297 301 296 298 306 309 310 306 314 311 295 278 189 195 195 162 156 154 156 157 160 166 172 183 200 212 222 238 242 249 242 252 289 288 206 166 158 156 327 81 105 86 77 83 65 69 67 55 45 20 11 105 126 140 137 149 121 82 117 130 132 147 146 146 156 157 160 163 163
330 329 328 326 324 324 325 326 326 327 327 326 329 329 329 329 321 309 299 295 294 290 298 303 306 309 304 314 304 282 300 180 206 183 173 167 162 166 164 164 167 177 196 211 215 216 229 241 259 259 259 285 295 340 132 147 146 161 132 98 87 65 67 59 60 63 57 51 10 325 137 163 170 170 196 146 101 140 146 146 154 148 152 160 155 162 169 166
329 329 328 326 325 323 323 324 325 326 325 325 328 329 328 327 322 309 297 292 287 287 293 296 308 307 299 305 277 257 39 220 227 186 183 180 177 178 169 169 171 181 200 214 211 213 232 249 274 286 296 277 294 15 111 139 136 154 131 106 83 36 52 78 69 73 84 115 197 259 280 194 189 346 201 174 144 154 151 151 159 153 160 166 158 167 175 168
329 328 328 327 326 323 322 322 324 325 324 324 326 328 327 324 321 307 296 288 281 283 287 295 306 301 305 292 260 246 241 232 231 207 195 194 196 193 174 176 182 189 203 216 211 219 245 259 270 270 281 277 329 35 149 149 138 157 142 123 97 30 29 119 97 116 137 216 181 202 253 224 212 183 182 176 161 158 154 163 176 162 166 167 161 172 175 167
329 328 328 327 326 324 322 321 322 323 323 322 324 327 324 322 318 303 292 281 276 276 277 290 297 305 309 278 259 239 217 207 204 205 198 195 199 194 184 185 193 200 211 228 223 229 262 263 260 265 283 286 309 15 180 150 140 162 148 118 124 46 280 166 145 125 135 206 189 201 223 200 218 198 174 170 170 166 163 182 184 167 168 168 165 173 172 169
327 327 327 326 326 325 322 320 320 322 322 321 322 324 322 318 313 299 288 277 271 270 273 283 285 304 284 258 258 225 211 201 187 198 195 189 189 192 194 196 203 209 220 240 239 242 264 263 258 266 276 277 279 285 211 143 140 155 137 150 171 181 157 168 162 138 160 195 190 206 230 171 204 193 171 170 175 172 170 184 184 176 170 165 169 175 172 174
323 324 324 324 324 324 322 320 318 320 320 318 318 320 318 313 307 295 282 272 267 265 264 280 286 290 273 264 261 234 224 222 211 204 195 191 192 195 197 200 211 217 225 239 243 249 261 261 261 270 275 271 274 286 295 116 177 164 149 205 204 179 143 161 162 161 183 183 185 204 171 159 182 177 173 172 177 173 172 181 186 186 171 164 171 175 174 178
319 320 321 321 322 322 322 320 318 319 319 317 316 316 315 310 303 289 278 269 263 261 252 278 330 303 279 275 253 224 220 224 223 211 199 198 198 202 198 199 215 223 231 237 242 254 263 263 262 268 274 275 271 260 246 211 221 198 187 222 206 158 151 159 165 178 185 165 184 213 168 151 164 171 172 172 178 174 168 179 188 183 168 167 172 174 178 179
313 315 317 318 319 320 321 320 317 316 317 315 313 313 310 303 295 282 266 256 251 252 241 217 326 290 261 263 250 224 221 222 220 210 204 203 205 211 204 202 217 223 231 237 243 252 255 258 261 260 257 260 270 259 244 234 237 213 190 204 198 154 157 151 161 180 180 169 186 206 189 147 150 162 175 184 184 174 168 177 183 176 167 173 175 176 180 178
309 310 313 314 315 317 319 320 317 316 316 314 311 310 305 296 291 277 255 248 242 245 256 223 206 268 244 240 239 229 227 222 213 208 207 205 207 216 214 211 217 223 229 234 239 244 247 250 253 267 270 261 267 258 258 284 297 286 182 173 158 151 156 147 161 174 176 186 174 172 174 140 144 157 170 186 188 178 173 173 172 171 172 178 179 178 178 179
309 308 309 310 311 313 315 318 317 316 314 310 309 306 302 292 282 269 250 238 218 214 251 200 187 221 263 244 228 224 232 220 206 206 206 204 206 215 222 220 218 221 227 229 227 232 241 246 243 257 267 259 264 256 265 299 317 322 325 228 147 134 155 141 154 166 171 180 138 145 206 138 143 155 153 170 184 178 167 166 166 166 171 179 186 183 176 181
311 308 307 306 307 309 312 315 317 316 314 311 309 305 301 295 276 245 213 223 229 238 261 227 198 227 270 284 232 214 223 206 196 203 205 202 203 211 221 223 222 221 227 230 224 230 238 243 245 248 253 268 293 295 285 300 313 300 292 275 136 128 149 132 143 160 167 169 137 184 220 139 141 154 143 158 174 167 159 167 166 163 170 177 184 185 180 185
312 308 306 304 303 305 307 311 314 315 313 308 307 299 291 317 334 346 281 247 247 248 257 256 231 236 254 266 239 194 192 196 198 209 207 201 202 208 215 218 223 220 222 231 231 236 244 246 243 246 258 275 285 296 292 298 305 289 282 290 118 123 137 130 142 153 150 154 140 167 184 128 138 149 141 154 161 154 161 170 163 161 172 176 178 182 182 187
313 308 306 303 299 301 303 307 312 313 310 300 296 283 272 314 337 327 315 283 268 255 248 250 245 242 242 249 248 185 199 210 207 213 210 202 203 209 210 209 222 228 219 225 226 225 239 253 256 254 259 255 252 272 283 285 290 285 277 280 103 112 123 129 142 138 134 167 135 139 149 129 140 141 141 154 154 153 161 166 160 162 172 174 176 180 178 183
315 310 307 304 298 299 299 304 310 308 306 293 284 279 270 296 315 312 307 286 280 266 244 236 235 237 233 233 232 197 214 223 213 209 205 204 206 210 217 211 217 231 227 222 222 224 224 238 255 262 258 254 256 264 275 279 274 268 269 259 166 171 156 131 143 132 131 184 135 113 165 138 134 138 142 145 144 151 155 157 158 161 170 172 174 179 178 182
317 313 308 304 299 296 297 307 316 315 312 290 285 302 289 290 302 309 303 283 278 268 245 231 225 228 227 223 219 207 219 230 227 210 197 203 209 208 222 228 220 226 234 230 226 230 234 240 250 260 264 265 272 272 270 272 269 259 238 213 172 187 153 115 147 142 142 187 140 114 126 128 138 150 144 139 146 157 155 153 154 157 168 173 171 177 180 182
317 315 310 307 300 294 298 310 325 318 300 280 290 319 308 288 293 307 304 286 266 251 238 227 220 222 220 217 216 212 217 228 232 222 197 200 210 209 216 231 230 225 230 233 236 234 236 257 261 262 270 274 271 268 261 258 269 255 227 216 301 285 143 128 154 156 139 185 147 134 154 126 154 162 145 147 153 158 160 157 155 155 167 174 168 172 183 183
317 315 311 308 302 293 294 300 272 264 275 277 288 313 313 294 300 308 296 281 268 226 198 199 202 204 205 207 207 208 219 225 224 226 207 197 209 219 218 223 231 237 235 231 240 240 189 260 279 267 260 266 262 258 250 250 256 234 236 260 220 206 259 152 157 170 143 163 210 203 173 130 179 190 151 155 158 156 169 170 161 161 168 174 170 172 184 184
315 313 309 307 305 299 287 265 245 256 270 318 343 315 315 305 297 305 285 263 250 181 151 160 172 179 197 201 194 198 215 208 207 221 218 196 203 221 230 225 222 232 244 239 239 235 127 155 281 263 248 252 256 260 252 241 239 221 6 347 60 182 240 211 165 186 149 154 217 221 143 134 188 195 151 156 163 161 171 185 178 170 170 176 176 175 183 186
312 310 306 302 303 301 285 271 259 252 258 305 327 310 315 303 289 288 274 272 205 150 142 150 158 173 204 200 190 199 220 202 191 209 215 201 196 213 229 235 238 229 227 235 240 234 166 181 242 244 236 242 249 264 262 247 248 265 348 337 297 257 244 206 161 197 162 161 218 186 152 150 167 174 161 167 179 177 177 187 191 177 177 187 182 173 182 189
309 305 303 297 298 295 280 271 264 255 250 264 275 282 300 296 287 267 255 265 171 152 148 155 163 180 205 198 189 202 223 226 209 189 201 203 196 211 231 233 246 252 234 230 232 229 204 208 238 241 229 236 245 255 259 251 245 252 335 310 271 274 277 248 182 190 172 202 246 195 175 156 158 184 186 187 194 193 181 184 193 184 187 196 186 176 186 193
306 303 299 292 291 278 268 270 269 270 261 255 262 274 286 281 268 245 234 235 191 167 137 146 168 180 197 196 189 202 218 233 231 185 190 199 194 211 238 232 238 258 250 241 240 232 198 209 249 252 227 238 250 254 257 250 244 247 298 284 242 227 248 252 214 186 173 203 230 222 191 154 179 196 195 204 200 199 187 179 189 189 188 192 188 185 188 189
303 300 292 284 281 259 257 271 295 313 284 272 287 287 269 256 247 241 224 247 211 158 136 161 179 175 193 201 194 201 213 226 227 192 182 194 193 202 227 232 231 243 248 247 243 232 196 193 233 238 216 225 237 248 254 247 248 262 284 269 240 206 221 236 216 204 223 221 230 237 195 171 200 203 192 201 197 197 189 176 185 189 185 185 188 195 192 185
302 296 283 276 272 251 237 206 160 194 227 247 289 271 242 228 228 238 234 286 208 170 174 187 180 176 194 205 203 197 205 219 219 199 179 189 199 198 209 219 213 217 235 238 233 232 214 199 213 221 213 217 223 234 244 239 238 245 255 257 249 219 217 223 221 221 237 229 225 253 221 197 213 226 200 201 203 195 182 178 185 185 184 181 182 196 203 194
305 291 275 267 262 246 222 194 196 222 228 226 271 253 234 236 227 228 235 243 182 161 189 177 173 186 192 201 212 196 196 212 211 198 185 192 204 201 204 216 221 218 223 229 228 230 225 204 205 217 211 211 225 233 227 223 213 213 232 250 241 217 223 229 225 232 240 234 206 188 212 216 186 208 216 209 207 183 174 182 177 176 179 174 176 191 202 194
307 288 276 263 257 242 215 207 214 224 235 246 262 238 222 239 242 233 235 236 205 137 177 195 178 189 194 201 212 194 194 216 210 194 188 197 208 207 203 212 224 231 230 233 239 230 231 213 202 216 205 192 217 235 233 223 207 205 222 243 243 216 212 236 239 240 238 249 224 192 194 238 175 177 198 214 196 172 173 175 160 162 167 164 173 185 191 191
312 287 278 261 250 235 210 208 211 212 223 235 242 230 219 231 239 237 239 249 244 182 195 225 198 194 196 203 214 200 194 217 212 198 199 205 209 211 208 206 214 227 235 234 243 236 238 232 202 210 212 197 207 225 238 237 219 202 211 230 248 231 211 218 238 260 257 266 264 212 181 223 136 163 181 198 189 168 160 153 152 159 160 161 174 179 191 200
316 281 277 265 246 225 206 204 202 199 210 223 226 224 227 235 243 251 263 317 326 302 206 194 205 224 204 189 215 207 193 210 214 201 204 212 214 216 215 208 203 213 228 233 239 241 241 242 202 196 206 209 205 209 226 241 243 216 216 227 235 232 236 233 218 244 263 271 278 250 210 186 148 170 178 173 175 166 142 139 148 150 154 169 186 190 203 205
321 278 262 257 247 228 204 200 197 193 203 222 229 229 235 242 252 263 265 341 346 324 291 204 192 225 224 195 210 207 190 198 209 202 202 206 212 217 216 216 203 203 218 231 243 248 246 260 224 201 206 207 203 205 215 230 239 228 231 243 228 211 227 267 242 221 242 250 242 232 226 194 175 200 174 166 184 185 169 176 163 141 154 176 189 192 194 189
328 291 259 229 218 219 207 194 187 187 199 220 235 243 252 254 256 270 285 317 306 285 268 259 207 207 239 223 203 199 187 189 204 202 209 208 202 208 212 219 210 200 210 221 231 251 260 274 237 219 221 204 197 206 211 217 227 234 251 268 256 214 215 251 250 250 261 248 230 233 234 194 174 185 158 171 197 190 153 144 144 142 164 180 185 183 177 178
336 306 263 181 187 208 204 178 176 185 202 221 230 238 253 260 265 280 307 344 299 273 256 265 248 223 257 253 225 200 186 194 214 200 201 211 193 196 204 212 213 202 203 212 224 246 262 278 244 215 218 204 194 210 215 206 212 230 248 255 266 273 260 246 218 209 259 257 254 257 257 241 175 175 181 177 175 160 120 95 66 329 181 80 65 147 161 176
323 291 178 153 179 205 176 162 177 192 208 224 231 237 246 253 258 264 272 281 271 266 258 263 253 240 257 253 253 235 191 195 218 207 192 203 193 190 198 205 217 209 197 205 223 233 233 252 263 224 206 202 199 205 216 214 202 212 232 237 243 241 238 260 239 204 232 247 249 277 281 293 94 118 59 46 93 108 115 117 91 349 49 74 61 102 145 180
300 273 161 154 182 190 158 162 190 204 215 228 239 246 248 258 261 254 246 232 248 254 260 270 274 291 302 276 258 257 215 198 217 219 195 198 205 202 199 204 216 214 197 199 218 229 224 229 252 244 208 203 206 199 211 226 219 207 213 221 240 244 226 240 248 226 258 269 249 236 246 245 90 79 27 354 72 91 115 132 118 74 99 123 111 133 156 178
273 255 149 167 194 183 168 178 204 208 218 229 237 244 246 260 272 272 272 251 241 244 259 271 273 281 298 298 274 258 242 220 219 223 214 206 211 200 188 206 220 221 207 202 214 219 227 243 251 253 238 215 214 204 206 222 231 227 220 210 218 239 240 243 245 218 234 263 264 246 235 195 87 91 63 18 55 76 100 122 121 120 97 102 137 166 167 172
271 269 131 178 197 181 182 207 207 207 227 234 239 245 242 239 255 267 274 267 253 237 244 257 264 260 262 275 276 271 268 253 228 222 215 213 219 203 185 199 220 224 211 204 213 206 211 241 255 263 267 235 223 214 200 210 229 236 230 216 213 223 222 222 240 237 226 234 248 251 237 172 82 93 64 12 10 39 97 94 109 120 99 99 138 170 169 177
299 289 176 176 181 179 198 230 205 207 221 226 237 245 243 242 253 258 254 248 249 246 238 239 250 255 253 261 264 262 268 261 241 238 226 216 223 209 193 194 203 218 213 197 202 187 187 221 232 245 264 239 223 222 199 198 214 230 237 232 228 239 244 239 235 236 235 231 230 245 248 180 99 92 99 5 292 274 101 100 113 124 108 114 147 156 164 181
303 276 176 166 180 193 226 251 247 258 243 229 234 240 245 246 240 247 254 250 242 244 249 236 231 239 243 248 253 252 256 252 244 256 255 246 239 215 201 191 179 203 222 204 202 204 192 203 211 222 245 233 213 220 212 204 207 214 231 237 233 237 247 254 257 244 235 229 225 243 267 178 130 168 237 239 254 246 157 176 211 174 141 130 140 147 171 176
304 281 159 164 186 206 236 255 267 281 270 258 253 239 242 248 236 229 236 254 251 240 248 246 232 235 236 238 245 244 245 249 249 256 255 253 249 222 203 190 173 199 226 203 204 236 224 206 211 215 232 247 248 237 219 214 219 217 219 230 236 236 235 240 261 262 258 265 248 236 253 237 174 185 215 216 245 248 174 236 233 161 144 134 145 157 158 162
293 297 358 153 203 213 231 243 249 252 245 256 274 251 233 238 249 222 201 226 251 242 246 254 244 243 237 232 241 244 239 239 241 246 247 251 255 243 226 213 188 178 196 190 198 233 254 233 222 219 224 243 261 266 250 234 231 230 224 224 232 241 246 243 244 246 245 256 257 224 211 246 237 213 212 205 223 239 55 29 23 120 131 133 162 172 154 149
302 300 327 1 309 232 233 233 235 246 247 244 265 282 254 237 245 228 187 207 239 234 232 238 237 244 247 237 233 240 242 235 231 234 232 236 249 249 238 225 195 152 151 204 202 212 257 254 237 231 227 233 249 260 263 258 245 237 235 233 233 237 243 243 245 250 248 244 244 218 188 223 244 242 260 334 77 82 66 50 43 57 82 124 181 179 156 144
337 317 322 350 333 284 286 274 256 260 261 259 260 268 273 264 249 233 201 217 238 229 223 233 232 230 237 241 238 241 247 241 242 257 258 246 246 249 241 228 214 193 205 220 211 205 236 255 255 254 245 235 239 246 253 259 256 244 234 230 231 233 235 234 239 246 250 256 258 239 203 214 234 224 216 42 66 82 80 77 78 69 6 14 23 26 24 10
351 334 325 335 324 296 288 283 278 273 265 272 268 247 261 269 258 248 232 230 242 229 216 237 243 233 239 243 236 247 273 259 246 276 294 277 259 252 242 221 236 244 230 221 214 203 208 237 254 258 260 249 241 238 239 247 254 256 249 240 238 243 241 233 228 235 238 244 253 250 228 208 193 124 119 110 89 87 85 91 104 111 86 66 45 34 37 9
347 331 321 321 313 299 290 276 272 272 256 252 254 248 251 251 249 258 253 241 255 261 253 260 265 283 284 258 238 261 328 305 277 276 283 279 272 262 257 246 281 258 237 219 218 210 203 222 240 247 257 256 250 245 236 234 241 248 250 248 247 252 253 241 237 253 259 251 244 245 240 189 127 114 118 126 129 119 109 109 101 83 79 81 83 138 166 165
349 338 327 311 291 289 288 273 266 268 261 258 254 249 258 265 263 257 253 251 260 266 284 310 303 305 271 257 257 30 347 303 301 306 293 277 273 271 272 270 265 265 250 223 222 225 219 220 231 241 248 248 250 254 248 236 233 238 238 238 242 250 257 249 237 241 259 269 263 248 184 105 109 121 119 104 141 121 89 65 64 75 84 99 119 135 131 116
Height
1504 1502 1500 1499 1497 1496 1494 1492 1491 1489 1488 1486 1484 1483 1482 1481 1480 1480 1479 1479 1479 1478 1478 1478 1477 1477 1476 1475 1474 1473 1473 1472 1471 1470 1468 1467 1469 1471 1473 1474 1475 1477 1478 1480 1482 1485 1487 1489 1489 1488 1487 1487 1488 1487 1486 1487 1487 1488 1491 1495 1495 1491 1486 1475 1473 1477 1477 1478 1480 1476 1476 1479 1481 1481 1479 1477 1478 1476 1475 1477 1478 1478 1478 1482 1485 1487 1489 1491
1503 1502 1500 1499 1497 1495 1494 1492 1491 1489 1488 1486 1484 1483 1481 1480 1480 1479 1479 1478 1478 1478 1478 1477 1477 1476 1475 1475 1473 1472 1471 1470 1469 1467 1465 1466 1468 1470 1471 1473 1475 1476 1478 1480 1482 1485 1487 1488 1489 1488 1488 1489 1488 1486 1485 1485 1484 1485 1489 1494 1493 1489 1483 1473 1472 1473 1471 1477 1480 1478 1478 1479 1481 1480 1479 1479 1478 1477 1477 1478 1479 1480 1480 1483 1486 1488 1490 1491
1503 1501 1500 1498 1497 1495 1493 1492 1490 1489 1487 1486 1484 1482 1481 1480 1479 1478 1478 1478 1477 1477 1477 1477 1476 1475 1475 1474 1473 1471 1470 1469 1466 1462 1461 1464 1467 1469 1471 1473 1475 1476 1478 1480 1482 1484 1486 1487 1488 1487 1488 1490 1488 1488 1486 1484 1483 1483 1487 1494 1492 1485 1479 1473 1474 1473 1472 1474 1476 1480 1481 1480 1482 1482 1483 1481 1478 1478 1478 1480 1481 1482 1482 1484 1487 1488 1490 1492
1502 1501 1499 1498 1496 1495 1493 1491 1490 1489 1487 1486 1484 1482 1481 1479 1479 1478 1478 1477 1477 1477 1476 1476 1476 1475 1474 1473 1472 1471 1469 1467 1463 1459 1460 1462 1465 1468 1470 1472 1474 1476 1478 1480 1482 1483 1485 1486 1487 1486 1488 1489 1488 1487 1484 1483 1484 1483 1486 1492 1486 1479 1479 1475 1475 1474 1473 1474 1475 1478 1480 1481 1484 1485 1485 1482 1481 1482 1479 1479 1481 1482 1483 1485 1487 1489 1490 1492
1502 1500 1499 1497 1495 1494 1493 1491 1490 1488 1487 1485 1483 1482 1480 1479 1478 1477 1477 1477 1476 1476 1476 1476 1475 1474 1474 1473 1472 1470 1470 1469 1462 1459 1461 1462 1465 1468 1470 1472 1474 1476 1477 1480 1481 1483 1483 1484 1486 1486 1487 1485 1485 1484 1480 1480 1483 1485 1487 1485 1479 1476 1478 1476 1474 1475 1474 1475 1476 1477 1479 1481 1483 1484 1484 1481 1483 1484 1480 1480 1482 1483 1485 1485 1487 1489 1490 1492
1501 1500 1498 1496 1495 1493 1492 1491 1489 1488 1486 1484 1483 1482 1480 1479 1478 1477 1476 1476 1476 1476 1475 1475 1474 1474 1473 1472 1472 1470 1471 1470 1463 1461 1462 1463 1465 1468 1470 1472 1474 1475 1477 1479 1480 1482 1481 1482 1484 1485 1485 1481 1481 1480 1477 1480 1483 1487 1487 1479 1477 1476 1476 1475 1475 1476 1475 1476 1478 1479 1480 1480 1481 1483 1483 1480 1482 1482 1481 1482 1483 1484 1486 1486 1488 1489 1490 1492
1501 1499 1497 1496 1494 1493 1491 1490 1489 1487 1485 1484 1483 1481 1480 1478 1477 1476 1476 1475 1475 1475 1474 1474 1474 1473 1472 1472 1471 1469 1469 1466 1462 1463 1463 1464 1466 1468 1470 1472 1474 1475 1476 1478 1479 1480 1480 1481 1482 1481 1481 1480 1481 1478 1475 1482 1485 1485 1482 1476 1476 1476 1475 1476 1476 1477 1477 1478 1480 1479 1481 1482 1482 1484 1483 1482 1482 1481 1482 1483 1484 1486 1487 1488 1489 1490 1491 1492
1500 1498 1497 1495 1493 1492 1491 1489 1488 1486 1485 1483 1482 1481 1479 1478 1477 1476 1475 1475 1475 1474 1474 1474 1474 1473 1472 1472 1471 1469 1466 1464 1462 1463 1464 1465 1467 1468 1470 1472 1474 1474 1475 1477 1477 1477 1478 1479 1479 1478 1478 1477 1477 1476 1476 1483 1483 1478 1477 1474 1475 1476 1476 1476 1476 1478 1479 1479 1481 1480 1481 1483 1483 1483 1483 1483 1484 1482 1482 1484 1485 1486 1487 1489 1490 1490 1491 1492
1500 1498 1496 1495 1493 1491 1490 1488 1487 1486 1484 1483 1481 1480 1478 1477 1476 1475 1475 1474 1474 1474 1473 1473 1473 1473 1472 1471 1472 1470 1464 1462 1462 1462 1464 1466 1467 1468 1469 1471 1472 1474 1474 1475 1475 1476 1477 1476 1476 1475 1474 1472 1471 1472 1474 1478 1478 1475 1473 1473 1475 1477 1478 1478 1478 1479 1480 1481 1482 1482 1482 1482 1482 1483 1484 1483 1484 1482 1481 1483 1485 1486 1488 1489 1490 1491 1492 1493
1499 1497 1496 1494 1492 1490 1489 1488 1486 1485 1484 1482 1481 1479 1478 1477 1475 1475 1474 1474 1474 1473 1473 1473 1473 1472 1472 1471 1472 1470 1464 1462 1463 1462 1463 1465 1466 1467 1469 1470 1471 1472 1474 1474 1474 1475 1475 1475 1474 1471 1470 1470 1468 1467 1469 1471 1472 1472 1472 1473 1475 1476 1477 1478 1480 1480 1481 1482 1483 1485 1485 1482 1482 1485 1486 1483 1482 1482 1481 1481 1483 1486 1488 1489 1490 1492 1492 1493
1498 1496 1495 1493 1491 1490 1488 1487 1485 1484 1483 1481 1480 1479 1477 1476 1475 1474 1474 1473 1473 1473 1472 1472 1472 1472 1471 1471 1471 1468 1463 1463 1463 1463 1464 1464 1465 1466 1467 1469 1470 1471 1473 1473 1473 1473 1474 1473 1471 1469 1469 1469 1467 1467 1467 1465 1467 1470 1471 1475 1476 1477 1477 1477 1479 1481 1479 1479 1483 1487 1487 1484 1484 1486 1485 1482 1481 1482 1482 1481 1482 1485 1487 1488 1490 1492 1492 1493
1497 1496 1494 1492 1491 1489 1487 1486 1484 1483 1482 1481 1479 1478 1477 1475 1474 1473 1473 1473 1473 1472 1472 1472 1472 1471 1470 1470 1468 1464 1464 1464 1463 1463 1464 1464 1465 1466 1467 1469 1470 1470 1471 1471 1471 1472 1472 1472 1470 1469 1468 1464 1465 1474 1471 1462 1463 1467 1469 1476 1479 1480 1481 1479 1480 1482 1480 1479 1483 1491 1494 1490 1486 1486 1483 1482 1482 1481 1482 1482 1482 1485 1487 1488 1490 1491 1492 1493
1496 1495 1493 1492 1490 1488 1487 1485 1484 1482 1481 1480 1478 1477 1476 1475 1474 1473 1473 1472 1472 1472 1471 1471 1471 1471 1471 1468 1462 1461 1464 1465 1463 1463 1464 1464 1466 1467 1468 1470 1470 1470 1471 1470 1470 1471 1471 1470 1468 1467 1465 1461 1462 1469 1466 1458 1462 1467 1468 1474 1482 1486 1485 1481 1480 1482 1484 1482 1483 1491 1498 1493 1484 1482 1481 1481 1481 1481 1482 1483 1484 1484 1486 1488 1490 1491 1492 1493
1496 1494 1492 1491 1489 1487 1486 1484 1483 1481 1480 1479 1478 1477 1475 1474 1473 1472 1472 1472 1471 1471 1471 1471 1471 1471 1470 1465 1460 1461 1463 1464 1464 1463 1464 1465 1466 1468 1469 1469 1470 1470 1470 1469 1469 1470 1468 1467 1467 1464 1463 1462 1458 1456 1456 1458 1463 1466 1471 1475 1479 1487 1487 1479 1478 1483 1485 1483 1481 1487 1494 1490 1482 1479 1479 1480 1480 1481 1484 1484 1485 1485 1485 1488 1490 1491 1492 1493
1495 1493 1491 1490 1488 1486 1485 1483 1482 1480 1479 1478 1477 1476 1474 1473 1472 1471 1472 1471 1471 1471 1470 1471 1470 1470 1469 1463 1459 1460 1461 1463 1463 1463 1464 1465 1466 1467 1468 1469 1469 1468 1469 1469 1468 1468 1466 1465 1465 1462 1460 1458 1455 1457 1463 1471 1469 1464 1476 1482 1474 1478 1483 1477 1477 1481 1483 1481 1479 1484 1490 1486 1480 1478 1478 1479 1479 1481 1485 1485 1485 1485 1485 1488 1489 1491 1493 1494
1494 1492 1490 1489 1487 1485 1484 1482 1481 1480 1478 1477 1476 1475 1473 1473 1471 1471 1471 1470 1471 1470 1470 1471 1470 1471 1468 1462 1458 1458 1459 1460 1461 1462 1463 1463 1464 1465 1466 1468 1468 1467 1467 1466 1466 1465 1464 1463 1462 1460 1458 1455 1454 1460 1468 1474 1471 1461 1471 1481 1470 1471 1480 1478 1475 1473 1473 1477 1478 1479 1484 1484 1480 1477 1477 1479 1479 1481 1483 1484 1485 1486 1486 1487 1489 1490 1492 1494
1492 1491 1489 1488 1486 1484 1483 1482 1480 1479 1477 1476 1475 1474 1473 1471 1470 1470 1470 1470 1470 1469 1470 1470 1470 1471 1466 1458 1457 1457 1457 1458 1459 1460 1461 1462 1463 1463 1465 1466 1466 1466 1465 1465 1465 1463 1462 1461 1460 1458 1455 1453 1452 1457 1468 1475 1472 1464 1465 1471 1465 1464 1473 1477 1475 1468 1466 1473 1476 1475 1477 1478 1476 1475 1477 1478 1480 1481 1482 1484 1485 1486 1487 1487 1489 1490 1491 1493
1491 1489 1488 1487 1485 1483 1482 1481 1479 1478 1477 1475 1474 1473 1471 1470 1469 1469 1468 1469 1469 1469 1470 1468 1470 1473 1463 1453 1453 1454 1454 1455 1456 1458 1459 1460 1461 1462 1462 1462 1463 1464 1463 1462 1461 1460 1461 1457 1456 1459 1456 1454 1453 1458 1471 1472 1463 1459 1459 1463 1463 1460 1462 1470 1472 1465 1464 1470 1472 1475 1475 1473 1472 1474 1479 1480 1481 1483 1481 1482 1484 1485 1487 1488 1488 1489 1490 1492
1489 1487 1486 1485 1484 1483 1481 1480 1478 1477 1475 1474 1474 1472 1470 1469 1468 1467 1467 1468 1468 1467 1465 1462 1464 1465 1455 1448 1449 1451 1451 1452 1453 1456 1457 1458 1460 1461 1460 1460 1461 1461 1460 1461 1460 1457 1458 1457 1458 1465 1464 1459 1454 1453 1459 1455 1448 1448 1447 1450 1458 1459 1457 1459 1460 1457 1460 1467 1471 1476 1475 1470 1469 1471 1476 1480 1482 1482 1481 1480 1482 1484 1485 1487 1487 1488 1489 1491
1487 1486 1485 1483 1482 1481 1480 1479 1478 1476 1475 1474 1473 1471 1469 1467 1465 1465 1467 1467 1464 1461 1457 1456 1457 1454 1449 1446 1447 1448 1449 1449 1451 1453 1455 1456 1458 1459 1458 1458 1457 1457 1458 1459 1459 1454 1454 1462 1465 1465 1461 1455 1450 1446 1444 1441 1440 1443 1443 1443 1446 1454 1456 1451 1453 1451 1450 1462 1474 1478 1473 1467 1467 1466 1466 1472 1474 1475 1478 1478 1479 1481 1483 1485 1486 1487 1488 1490
1485 1484 1483 1482 1481 1480 1479 1478 1477 1475 1474 1473 1472 1471 1469 1467 1465 1465 1465 1463 1459 1457 1454 1453 1455 1452 1449 1447 1444 1445 1449 1450 1450 1452 1453 1455 1456 1457 1456 1455 1456 1458 1456 1453 1455 1455 1457 1465 1463 1455 1449 1447 1446 1443 1440 1440 1440 1441 1442 1442 1442 1448 1452 1446 1449 1449 1445 1460 1473 1470 1468 1466 1464 1462 1460 1463 1466 1468 1472 1473 1475 1478 1481 1483 1484 1485 1487 1489
1484 1482 1481 1480 1479 1478 1478 1476 1476 1475 1473 1473 1472 1470 1469 1468 1468 1467 1466 1460 1455 1453 1452 1451 1451 1450 1448 1447 1444 1445 1448 1448 1449 1450 1451 1453 1454 1454 1452 1452 1455 1456 1451 1450 1456 1461 1466 1467 1457 1445 1441 1442 1443 1441 1441 1442 1442 1443 1441 1442 1446 1446 1446 1446 1445 1445 1447 1459 1468 1465 1468 1469 1462 1458 1458 1458 1460 1463 1466 1469 1471 1474 1477 1479 1481 1482 1484 1486
1482 1480 1479 1478 1477 1477 1476 1475 1475 1473 1472 1472 1470 1470 1469 1468 1468 1468 1467 1461 1453 1449 1447 1447 1447 1446 1446 1445 1444 1446 1447 1446 1446 1446 1449 1451 1450 1451 1449 1449 1453 1453 1450 1451 1457 1464 1470 1465 1451 1441 1439 1441 1444 1442 1442 1443 1441 1442 1440 1444 1449 1442 1445 1454 1449 1446 1448 1452 1460 1465 1467 1466 1460 1458 1457 1455 1457 1459 1462 1465 1467 1471 1474 1475 1477 1480 1482 1484
1480 1478 1478 1476 1476 1476 1474 1474 1474 1472 1472 1471 1469 1469 1468 1469 1469 1468 1465 1460 1452 1444 1441 1441 1442 1442 1442 1442 1443 1445 1446 1445 1443 1442 1445 1448 1447 1448 1448 1445 1448 1453 1450 1447 1451 1457 1460 1452 1442 1441 1441 1442 1446 1445 1444 1447 1447 1441 1436 1439 1443 1435 1437 1449 1447 1445 1449 1449 1450 1460 1470 1468 1462 1464 1462 1456 1456 1457 1459 1462 1465 1468 1471 1473 1476 1478 1480 1482
1478 1478 1476 1474 1475 1473 1473 1474 1472 1472 1471 1470 1469 1468 1469 1469 1468 1468 1465 1461 1451 1437 1434 1437 1436 1437 1438 1440 1442 1442 1443 1444 1441 1440 1441 1444 1445 1446 1445 1443 1446 1450 1448 1445 1447 1451 1452 1447 1442 1444 1445 1444 1448 1449 1444 1447 1450 1443 1432 1428 1431 1431 1431 1438 1442 1445 1460 1466 1451 1453 1481 1483 1464 1462 1464 1459 1458 1459 1457 1458 1462 1466 1468 1470 1474 1476 1478 1480
1477 1476 1474 1474 1473 1471 1473 1472 1471 1472 1470 1469 1469 1468 1470 1469 1468 1469 1465 1464 1453 1432 1429 1433 1432 1432 1433 1435 1438 1440 1444 1442 1438 1439 1438 1441 1444 1443 1444 1443 1441 1444 1442 1440 1443 1445 1446 1448 1446 1447 1448 1448 1449 1448 1441 1440 1448 1447 1431 1419 1422 1428 1432 1436 1440 1449 1468 1474 1453 1445 1474 1487 1472 1464 1462 1458 1461 1461 1459 1457 1459 1463 1466 1468 1469 1473 1475 1477
1476 1474 1473 1472 1471 1471 1471 1470 1471 1470 1468 1470 1469 1469 1471 1468 1468 1468 1466 1471 1456 1427 1425 1431 1429 1430 1429 1430 1434 1439 1445 1439 1435 1438 1435 1438 1442 1441 1444 1442 1439 1441 1433 1437 1449 1446 1443 1451 1455 1451 1449 1451 1452 1449 1439 1433 1444 1444 1425 1419 1425 1430 1434 1434 1437 1449 1457 1460 1453 1445 1457 1478 1480 1468 1457 1456 1462 1463 1461 1460 1458 1458 1462 1464 1465 1468 1472 1474
1474 1473 1471 1470 1471 1471 1469 1469 1470 1468 1468 1470 1468 1469 1469 1467 1469 1466 1471 1480 1450 1418 1422 1427 1426 1429 1428 1429 1432 1434 1436 1432 1434 1437 1432 1436 1439 1438 1442 1439 1437 1437 1429 1439 1457 1448 1440 1452 1458 1451 1450 1453 1450 1446 1436 1431 1440 1436 1422 1424 1428 1427 1428 1426 1434 1447 1447 1454 1466 1455 1451 1475 1484 1467 1455 1457 1462 1466 1464 1461 1458 1457 1459 1461 1462 1465 1469 1471
1472 1471 1470 1468 1469 1470 1468 1468 1468 1466 1468 1467 1467 1469 1466 1468 1469 1463 1475 1476 1438 1414 1422 1424 1426 1429 1427 1428 1430 1431 1431 1428 1428 1430 1430 1434 1436 1436 1439 1436 1434 1434 1428 1434 1446 1441 1436 1442 1443 1442 1447 1449 1444 1439 1432 1432 1436 1428 1421 1427 1428 1427 1426 1425 1435 1444 1446 1461 1473 1459 1452 1474 1484 1468 1459 1461 1463 1463 1461 1458 1456 1455 1458 1459 1460 1464 1467 1469
1470 1469 1468 1466 1467 1468 1466 1466 1466 1466 1467 1466 1467 1467 1466 1469 1468 1470 1481 1463 1427 1416 1421 1422 1426 1427 1426 1428 1430 1430 1430 1427 1422 1422 1427 1430 1433 1435 1436 1434 1432 1434 1432 1430 1434 1432 1429 1432 1434 1434 1438 1439 1438 1435 1429 1428 1427 1420 1424 1432 1432 1432 1430 1430 1433 1439 1457 1475 1470 1455 1449 1465 1480 1470 1458 1458 1455 1452 1453 1455 1454 1453 1456 1457 1458 1461 1463 1465
1468 1467 1466 1464 1465 1466 1465 1465 1466 1466 1466 1466 1467 1466 1468 1467 1466 1476 1473 1438 1418 1421 1419 1422 1424 1421 1426 1430 1431 1431 1429 1427 1420 1420 1428 1429 1432 1435 1436 1438 1437 1439 1442 1438 1434 1429 1428 1435 1434 1429 1430 1432 1436 1437 1429 1423 1420 1422 1432 1437 1440 1442 1439 1442 1442 1445 1471 1481 1462 1445 1442 1455 1474 1466 1450 1445 1439 1437 1442 1448 1451 1450 1452 1454 1456 1458 1459 1462
1465 1464 1463 1462 1462 1463 1463 1464 1464 1464 1465 1465 1467 1467 1468 1469 1469 1471 1452 1425 1425 1427 1416 1418 1420 1418 1425 1427 1428 1429 1429 1428 1420 1418 1426 1430 1433 1435 1437 1440 1439 1448 1455 1448 1441 1435 1430 1432 1429 1427 1426 1426 1435 1442 1436 1427 1424 1431 1439 1442 1451 1458 1459 1464 1464 1462 1472 1469 1449 1440 1443 1455 1464 1451 1436 1434 1430 1428 1432 1436 1440 1443 1447 1451 1454 1457 1458 1460
1462 1460 1459 1459 1459 1459 1461 1463 1463 1464 1464 1464 1467 1464 1465 1473 1469 1453 1437 1428 1427 1418 1408 1411 1414 1416 1422 1427 1427 1424 1426 1428 1420 1418 1423 1427 1433 1433 1433 1432 1430 1442 1451 1444 1443 1442 1437 1430 1425 1429 1428 1422 1429 1441 1445 1438 1433 1438 1443 1445 1455 1465 1477 1485 1478 1471 1469 1458 1441 1436 1445 1459 1459 1442 1430 1427 1425 1423 1424 1427 1432 1437 1441 1447 1450 1455 1458 1460
1458 1457 1456 1456 1456 1457 1459 1461 1461 1463 1464 1465 1466 1464 1468 1474 1459 1437 1431 1425 1413 1408 1408 1409 1411 1416 1420 1424 1424 1419 1425 1428 1417 1418 1424 1427 1434 1434 1432 1431 1427 1431 1437 1439 1440 1440 1445 1444 1431 1428 1427 1422 1425 1430 1433 1431 1430 1434 1431 1435 1444 1450 1468 1483 1479 1473 1468 1456 1442 1437 1449 1460 1456 1441 1426 1419 1417 1418 1422 1425 1429 1434 1438 1444 1449 1453 1457 1459
1456 1454 1454 1453 1454 1456 1457 1459 1461 1462 1465 1465 1464 1464 1467 1465 1447 1433 1427 1415 1404 1407 1410 1408 1411 1419 1422 1421 1418 1412 1420 1426 1417 1419 1425 1427 1432 1432 1429 1429 1427 1428 1433 1442 1439 1430 1440 1442 1422 1415 1416 1416 1423 1422 1416 1422 1431 1427 1420 1431 1439 1433 1442 1459 1462 1457 1453 1455 1450 1442 1446 1445 1435 1427 1418 1415 1416 1415 1419 1423 1428 1436 1438 1444 1449 1450 1454 1456
1454 1452 1452 1452 1453 1454 1456 1458 1459 1461 1464 1463 1464 1463 1458 1448 1435 1427 1418 1409 1408 1408 1409 1413 1417 1423 1424 1421 1419 1413 1413 1419 1417 1420 1425 1424 1426 1424 1422 1421 1420 1424 1429 1435 1435 1429 1438 1434 1411 1408 1413 1410 1417 1418 1413 1422 1432 1427 1425 1433 1428 1416 1424 1443 1452 1444 1444 1461 1458 1442 1442 1436 1430 1429 1418 1416 1421 1418 1419 1423 1426 1433 1438 1443 1448 1449 1452 1453
1453 1452 1451 1452 1452 1453 1454 1457 1458 1461 1463 1462 1462 1457 1446 1435 1426 1419 1411 1410 1414 1411 1413 1423 1422 1422 1424 1421 1421 1416 1413 1417 1418 1420 1424 1424 1423 1419 1417 1415 1411 1415 1420 1424 1428 1423 1429 1431 1412 1409 1418 1409 1406 1413 1412 1412 1419 1429 1436 1426 1411 1409 1419 1433 1449 1451 1455 1468 1458 1442 1444 1442 1445 1445 1424 1419 1426 1423 1422 1423 1423 1430 1436 1440 1444 1446 1450 1451
1452 1451 1450 1451 1452 1452 1453 1456 1457 1460 1462 1461 1460 1452 1442 1432 1422 1415 1409 1409 1415 1416 1421 1427 1420 1416 1420 1419 1417 1412 1413 1420 1419 1419 1423 1423 1420 1412 1412 1413 1407 1407 1410 1416 1425 1418 1420 1433 1420 1407 1415 1410 1401 1413 1422 1415 1410 1419 1424 1411 1410 1428 1437 1437 1447 1458 1466 1471 1459 1446 1442 1439 1444 1443 1429 1426 1429 1424 1423 1424 1425 1429 1431 1434 1436 1440 1445 1449
1452 1451 1449 1449 1451 1451 1452 1455 1457 1459 1460 1459 1457 1450 1440 1432 1423 1416 1412 1413 1418 1421 1425 1425 1418 1415 1416 1414 1411 1407 1410 1419 1417 1418 1422 1420 1416 1407 1404 1409 1406 1403 1404 1409 1421 1419 1418 1434 1431 1408 1405 1408 1408 1419 1431 1428 1416 1414 1416 1412 1414 1428 1436 1434 1437 1448 1462 1468 1463 1456 1449 1442 1434 1426 1424 1427 1423 1421 1425 1428 1429 1429 1428 1431 1433 1436 1442 1447
1453 1451 1449 1448 1450 1450 1452 1455 1456 1458 1457 1453 1450 1444 1435 1430 1423 1416 1414 1416 1420 1422 1424 1421 1416 1417 1414 1409 1408 1405 1405 1412 1413 1414 1417 1415 1413 1406 1399 1402 1404 1401 1401 1405 1413 1416 1417 1431 1435 1416 1403 1412 1421 1422 1425 1426 1423 1424 1428 1429 1427 1424 1424 1429 1430 1432 1444 1457 1462 1465 1464 1449 1425 1413 1417 1422 1419 1420 1425 1429 1432 1430 1430 1433 1435 1437 1441 1444
1454 1451 1448 1449 1450 1449 1452 1455 1454 1453 1452 1449 1444 1439 1432 1427 1421 1413 1412 1417 1420 1420 1419 1418 1416 1417 1415 1412 1412 1408 1405 1410 1410 1410 1412 1409 1410 1409 1399 1396 1400 1399 1402 1409 1413 1415 1418 1425 1431 1424 1415 1419 1421 1411 1409 1413 1414 1420 1427 1429 1431 1426 1426 1441 1447 1434 1432 1444 1450 1459 1467 1450 1420 1410 1415 1416 1417 1420 1422 1426 1430 1430 1431 1433 1435 1438 1440 1442
1453 1449 1446 1448 1449 1448 1451 1452 1449 1447 1448 1445 1440 1434 1429 1425 1421 1415 1414 1418 1420 1419 1417 1417 1417 1418 1418 1415 1412 1409 1408 1411 1411 1409 1408 1404 1403 1404 1398 1393 1395 1394 1400 1411 1412 1408 1411 1418 1426 1426 1418 1415 1410 1400 1401 1404 1403 1409 1415 1417 1422 1423 1426 1445 1455 1444 1438 1441 1437 1443 1458 1446 1417 1410 1415 1414 1414 1417 1419 1422 1425 1429 1432 1433 1434 1437 1439 1440
1451 1448 1446 1447 1447 1448 1450 1448 1445 1444 1443 1438 1434 1429 1425 1422 1422 1420 1420 1421 1420 1419 1419 1419 1417 1417 1416 1413 1411 1411 1411 1412 1410 1404 1403 1402 1396 1393 1392 1393 1395 1394 1398 1410 1410 1404 1410 1420 1429 1430 1418 1408 1402 1395 1396 1399 1403 1412 1412 1407 1412 1418 1419 1427 1433 1431 1436 1441 1440 1447 1459 1445 1419 1410 1413 1415 1415 1416 1419 1421 1424 1428 1431 1433 1435 1436 1437 1440
1451 1447 1446 1447 1446 1447 1448 1444 1441 1440 1437 1433 1431 1427 1422 1418 1420 1422 1422 1422 1420 1418 1419 1418 1416 1415 1414 1411 1411 1411 1411 1414 1411 1400 1397 1399 1393 1385 1386 1390 1394 1397 1399 1405 1405 1405 1414 1424 1431 1439 1438 1430 1423 1417 1411 1408 1411 1417 1414 1406 1407 1411 1413 1417 1418 1421 1432 1436 1437 1451 1458 1443 1423 1415 1416 1418 1419 1418 1420 1423 1426 1428 1431 1433 1435 1436 1437 1439
1450 1445 1444 1446 1447 1447 1445 1439 1435 1434 1432 1430 1428 1425 1421 1418 1419 1421 1420 1418 1416 1415 1416 1415 1412 1412 1411 1410 1411 1409 1408 1412 1413 1404 1399 1399 1391 1382 1382 1386 1391 1396 1397 1398 1397 1400 1413 1421 1427 1441 1449 1447 1443 1436 1427 1418 1413 1415 1414 1410 1410 1411 1415 1419 1421 1428 1439 1436 1432 1444 1449 1436 1424 1421 1422 1421 1421 1420 1419 1421 1423 1426 1430 1433 1434 1436 1438 1438
1452 1445 1441 1444 1446 1445 1443 1438 1435 1435 1432 1431 1429 1423 1421 1421 1418 1416 1418 1418 1414 1412 1412 1411 1408 1410 1411 1411 1413 1413 1409 1407 1409 1408 1406 1404 1394 1383 1381 1384 1390 1395 1397 1397 1396 1399 1409 1415 1419 1429 1436 1434 1431 1422 1412 1410 1413 1416 1416 1414 1413 1410 1408 1413 1424 1434 1436 1435 1436 1436 1435 1434 1430 1427 1426 1424 1421 1421 1419 1420 1420 1422 1428 1432 1432 1435 1436 1436
1455 1447 1442 1445 1445 1442 1440 1437 1435 1433 1429 1430 1429 1421 1418 1421 1418 1413 1414 1417 1414 1411 1411 1410 1409 1412 1413 1412 1414 1416 1412 1409 1409 1410 1409 1406 1397 1387 1384 1385 1388 1394 1397 1397 1398 1402 1413 1418 1415 1419 1423 1420 1416 1411 1404 1405 1410 1413 1414 1414 1412 1408 1405 1412 1425 1428 1426 1436 1445 1433 1426 1435 1434 1425 1424 1423 1420 1421 1422 1422 1423 1424 1427 1431 1432 1434 1436 1437
1455 1449 1445 1448 1446 1439 1436 1434 1430 1428 1425 1423 1423 1419 1417 1419 1418 1414 1414 1414 1412 1411 1413 1414 1412 1411 1410 1410 1413 1416 1414 1412 1412 1409 1407 1407 1402 1395 1391 1386 1384 1390 1396 1398 1399 1403 1416 1421 1413 1412 1417 1414 1411 1410 1406 1406 1408 1408 1410 1411 1409 1409 1411 1416 1421 1417 1417 1431 1437 1426 1425 1434 1430 1422 1421 1418 1417 1421 1424 1426 1429 1430 1431 1433 1435 1436 1438 1441
1457 1453 1448 1448 1447 1439 1435 1432 1428 1427 1425 1421 1421 1422 1421 1420 1417 1414 1412 1414 1415 1410 1411 1416 1414 1409 1408 1406 1409 1414 1414 1415 1418 1414 1408 1408 1406 1402 1401 1396 1391 1391 1395 1400 1400 1402 1415 1421 1413 1411 1416 1413 1411 1411 1407 1407 1408 1406 1406 1407 1407 1408 1409 1411 1414 1412 1413 1419 1417 1414 1421 1426 1420 1417 1417 1416 1417 1422 1425 1428 1431 1432 1435 1440 1444 1446 1446 1448
1463 1461 1455 1452 1449 1442 1437 1433 1430 1429 1427 1425 1426 1424 1422 1422 1419 1414 1410 1414 1418 1412 1410 1414 1411 1406 1407 1405 1405 1411 1410 1410 1417 1417 1412 1412 1410 1406 1406 1405 1402 1398 1396 1400 1402 1403 1413 1421 1414 1412 1419 1417 1410 1408 1407 1408 1409 1408 1407 1403 1402 1405 1403 1403 1407 1408 1411 1415 1411 1409 1418 1421 1413 1410 1413 1416 1419 1422 1425 1429 1430 1433 1438 1444 1451 1453 1453 1454
1467 1466 1463 1460 1453 1444 1439 1434 1430 1431 1430 1428 1428 1425 1422 1420 1418 1415 1412 1411 1414 1413 1410 1411 1409 1407 1409 1407 1406 1410 1410 1407 1410 1411 1409 1410 1411 1408 1405 1403 1404 1406 1402 1401 1403 1404 1411 1419 1415 1416 1427 1424 1411 1407 1407 1405 1407 1412 1411 1407 1404 1405 1403 1400 1403 1404 1405 1409 1411 1412 1418 1420 1414 1410 1414 1417 1418 1422 1426 1427 1430 1434 1439 1442 1447 1449 1451 1453
1467 1465 1464 1463 1456 1446 1441 1435 1430 1432 1431 1427 1425 1423 1421 1418 1414 1416 1420 1414 1411 1412 1411 1411 1411 1412 1414 1413 1410 1410 1410 1409 1409 1409 1408 1408 1406 1405 1403 1400 1400 1405 1405 1403 1405 1405 1407 1415 1417 1420 1429 1426 1412 1408 1406 1405 1416 1420 1411 1404 1403 1402 1400 1400 1400 1401 1400 1403 1410 1416 1417 1414 1410 1410 1415 1418 1419 1422 1426 1429 1432 1436 1439 1442 1444 1447 1450 1452